Flag for Japan Weather past 2 weeks in Sapporo, Japan

Now
67 °F

Mild.


Feels Like: 67 °F
Forecast: 67 / 75 °F
Wind: 15 mph from Southeast

Location: Sapporo

Current Time: Jul 26, 2014 at 4:45:38 PM

Latest Report: Jul 26, 2014 at 4:00 PM


Visibility: N/A

Pressure: 29.63 "Hg

Humidity: 86%

Dew point: 63 °F

Location of SapporoLocation

Historic Weather in Sapporo — Graph

°F

Sapporo temperature yesterday

Maximum temperature yesterday: 83 °F (at 2:00 PM)
Minimum temperature yesterday: 72 °F (at 11:00 PM)
Average temperature yesterday: 77 °F

Past Weeks' High & Low Weather Summary

 TemperatureHumidityPressure
High86 °F (Jul 15, 2:00 PM)94% (Jul 26, 3:00 PM)30.06 "Hg (Jul 26, 3:00 PM)
Low64 °F (Jul 12, 4:00 AM)29% (Jul 25, 2:00 PM)29.32 "Hg (Jul 11, 3:00 PM)
Average74 °F66%29.78 "Hg
* Reported Jul 11 3:00 PM — Jul 26 3:00 PM, Sapporo, Weather by CustomWeather, © 2014

Note: Actual official high and low records may vary slightly from our data, if they occured in-between our weather recording intervals... More about our weather records

Advertising

Sapporo weather history for previous 24 hours

 ConditionsComfort  
Time TempWeatherWind HumidityBarometerVisibility
3:00 PM
Jul 26
66 °FRain showers. Overcast.12 mph94%29.70 "Hg1 mi
2:00 PM67 °FMild.10 mph89%29.73 "HgN/A
1:00 PM70 °FMild.7 mph91%29.75 "HgN/A
12:00 PM72 °FSprinkles. Overcast.3 mph79%29.80 "Hg4 mi
11:00 AM73 °FMild.3 mph74%29.82 "HgN/A
10:00 AM74 °FMild.6 mph64%29.83 "HgN/A
9:00 AM74 °FOvercast.3 mph62%29.84 "Hg6 mi
8:00 AM73 °FMild.3 mph65%29.85 "HgN/A
7:00 AM72 °FMild.3 mph64%29.86 "HgN/A
6:00 AM71 °FFog.3 mph63%29.85 "Hg3 mi
5:00 AM71 °FMild.3 mph63%29.85 "HgN/A
4:00 AM71 °FMild.2 mph62%29.85 "HgN/A
3:00 AM71 °FDense fog.No wind60%29.85 "Hg1 mi
2:00 AM72 °FMild.2 mph59%29.86 "HgN/A
1:00 AM72 °FMild.3 mph55%29.87 "HgN/A
12:00 AM72 °FMild.1 mph56%29.88 "HgN/A
11:00 PM
Jul 25
72 °FMild.1 mph55%29.89 "HgN/A
10:00 PM73 °FMild.5 mph54%29.87 "HgN/A
9:00 PM75 °FFog.7 mph48%29.87 "Hg2 mi
8:00 PM76 °FMild.1 mph42%29.87 "HgN/A
7:00 PM77 °FWarm.3 mph41%29.85 "HgN/A
6:00 PM78 °FFog.3 mph43%29.84 "Hg3 mi
5:00 PM78 °FWarm.7 mph44%29.82 "HgN/A
4:00 PM80 °FPleasantly warm.9 mph36%29.80 "HgN/A
Weather by CustomWeather, © 2014

See weather overviewHow to use our weather pages